星链-36452(STARLINK-36452)

导读

STARLINK-36452是美国SpaceX星链星座的一员,于2026年1月12日发射升空。星链项目旨在构建全球卫星互联网,该卫星延续星链设计,依托低轨部署,可为偏远地区、海洋、空中等场景提供高速网络服务,进一步拓展星链的全球覆盖范围与服务容量。

Basic Information
目录编号:
67405
目录名称:
STARLINK-36452
国际标识:
2026-005B
轨道中心:
EARTH
卫星名称:
星链-36452
卫星全名:
星链-36452(STARLINK-36452)
卫星状态:
在轨 (已飞行235 天)
发射日期:
2026-01-12 UTC
国别 :
美国 (US)
星等 :
--
Orbit Information
数据来源 国际轨道数据
星历时间: 2026-09-03T21:27:06+0800
21小时前
查看轨道信息
半长轴: 6861.32km
偏心率: 0.0000463
轨道倾角: 43.002°
近地点辐角 214.151°
升交点赤经 313.107°
平近点角 145.932°
近地点: 482.865km
远地点: 483.501km
周期: 94.269分钟
每日圈数: 15.275356
Detailed Information
固有亮度:
5
最大亮度:
2.5
卫星平台:
Starlink V1.0
覆盖范围:
全球
运营商:
太空探索技术公司
运营商所在国:
美国
制造商(研发单位):
太空探索技术公司
制造商所在国:
美国
使用方式:
暂无
Satellite Introduction
Starlink 计划是 SpaceX 推出的全球卫星互联网项目,通过发射低轨道卫星,为全球尤其是偏远地区提供高速、低延迟的互联网服务。自 2019 年起,Starlink 已部署数千颗卫星,旨在缩小全球数字鸿沟,推动互联网普及。该项目还为军事、航空等行业提供通信支持,带来广泛经济效益。
2D Orbit Map
3D Orbit Map
Orbit Altitude Analysis Chart
Orbit Inclination Analysis Chart
Orbit Comprehensive Analysis Chart
View Comprehensive Chart
Conjunction Data List
Event ID Objects TCA Miss Dist (km) Collision Risk Probability Collision Risk Index (CRI) Action
CDM_260904-192905-924006-740521
2026-09-04T
19:29:43+0000
0.266 km
中距离
4.531241E-4 高风险 0.88
CDM_260906-123205-669306-740521
2026-09-06T
12:32:09+0000
0.379 km
远距离
1.781421E-4 高风险 0.8
CDM_260906-013605-789506-740521
2026-09-06T
01:36:33+0000
0.674 km
远距离
5.491083E-5 中风险 0.7
CDM_260905-085005-924006-740521
2026-09-05T
08:50:04+0000
0.740 km
远距离
4.594989E-5 中风险 0.68
CDM_260905-044606-284906-740521
2026-09-05T
04:46:29+0000
0.840 km
远距离
3.708022E-5 中风险 0.66
CDM_260905-051006-648306-740521
2026-09-05T
05:10:25+0000
1.054 km
极远距离
1.069034E-5 中风险 0.56
CDM_260904-221105-796706-740521
2026-09-04T
22:11:25+0000
1.224 km
极远距离
8.631999E-6 低风险 0.54
CDM_260905-183205-789506-740521
2026-09-05T
18:32:50+0000
1.233 km
极远距离
7.311471E-6 低风险 0.52
CDM_260905-144005-796706-740521
2026-09-05T
14:40:05+0000
1.333 km
极远距离
6.444129E-6 低风险 0.51
CDM_260905-130505-796706-740521
2026-09-05T
13:05:56+0000
1.341 km
极远距离
6.318765E-6 低风险 0.51